Regional Weather Roundup
Issued by NWS Albany, NY

Home | Current Version | Previous Version | Graphics & Text | Print | Product List | Glossary On
Versions: 1 2 3 4 5 6 7 8 9 10 11 12 13 14 15 16 17 18 19 20 21 22 23 24 25 26 27 28 29 30 31 32 33 34 35 36 37 38 39 40 41 42 43 44 45 46 47 48 49 50
000
ASUS41 KALY 040610
RWRALY

NEW YORK STATE HOURLY WEATHER ROUNDUP
NATIONAL WEATHER SERVICE ALBANY NY
200 AM EDT MON MAY 04 2015

NOTE: "FAIR" INDICATES FEW OR NO CLOUDS BELOW 12,000 FEET WITH NO
SIGNIFICANT WEATHER AND/OR NO OBSTRUCTIONS TO VISIBILITY.

NYZ032-033-038>043-046>054-057>066-NYZ062>081-040700-
EAST


CITY           SKY/WX    TMP DP  RH WIND       PRES   REMARKS
ALBANY         PTCLDY    60  39  45 S7        30.12S
GLENS FALLS    PTCLDY    48  42  80 W3        30.11R
POUGHKEEPSIE   PTCLDY    52  44  74 CALM      30.14R
NEWBURGH       CLEAR     55  45  67 VRB8      30.15S
MONTGOMERY     CLEAR     49  41  74 CALM      30.14S
WHITE PLAINS   CLEAR     50  45  83 CALM      30.16S
ISLIP          MOCLDY    51  47  86 SW3       30.17R
NEW YORK CITY  CLEAR     57  47  69 S3        30.16S
CENTRAL PARK   CLEAR     61  43  51 CALM      30.19S
$$

NYZ005>009-017-018-044>046-055-056-040700-
CENTRAL


CITY           SKY/WX    TMP DP  RH WIND       PRES   REMARKS
FULTON         CLEAR     53  42  66 CALM      30.09S
SYRACUSE       PTCLDY    56  41  57 CALM      30.09S
ROME           CLEAR     48  40  73 E3        30.13S
ELMIRA         CLEAR     44  40  85 CALM      30.13S
BINGHAMTON     CLEAR     57  37  47 E3        30.14S
MONTICELLO     CLEAR     46  39  76 N6        30.17F
$$

NYZ026>034-041>043-040700-
NORTH


CITY           SKY/WX    TMP DP  RH WIND       PRES   REMARKS
WATERTOWN      CLEAR     60  39  45 S7        30.06F
FORT DRUM      NOT AVBL
MASSENA        CLEAR     58  39  49 SW7       30.05S
SARANAC LAKE   CLEAR     36  34  92 NE3       30.10S
PLATTSBURGH    CLEAR     48  42  80 S3        30.05S
$$

NYZ001>004-010>016-019>021-040700-
WEST


CITY           SKY/WX    TMP DP  RH WIND       PRES   REMARKS
NIAGARA FALLS  CLEAR     57  40  52 S8        30.06F
BUFFALO        PTCLDY    57  39  51 S6        30.08S
DUNKIRK        CLEAR     50  43  77 S6        30.08F
JAMESTOWN      CLEAR     55  37  50 S6        30.13F
WELLSVILLE     PTCLDY    60  33  36 S3        30.17S
ROCHESTER      PTCLDY    56  42  59 SW5       30.09S
PENN YAN       PTCLDY    54  43  66 SW6       30.12S
$$

             KEY
       WCI = WIND CHILL INDEX
       VSB = VISIBILITY
       HX  = HEAT INDEX
$$



USA.gov is the U.S. government's official web portal to all federal, state and local government web resources and services.